This is the latest recevied weather packets stored in our database for station/object W4WYD-2. If no packets are shown the sender has not sent any weather packets the latest 10 day(s).
| Time | Temp. | Humidity | Pressure | Rain* | Wind** | Luminosity | Snow |
|---|---|---|---|---|---|---|---|
| 1787784052 | 28.89° C | 70% | 1014.9 hPa | 0 mm | - | 166 W/m² | - |
| 1787783748 | 30° C | 67% | 1014.9 hPa | 0 mm | - | 193 W/m² | - |
| 1787783443 | 30° C | 68% | 1015.2 hPa | 0 mm | - | 217 W/m² | - |
| 1787783138 | 30° C | 67% | 1015.2 hPa | 0 mm | - | 233 W/m² | - |
| 1787782834 | 30° C | 67% | 1015.2 hPa | 0 mm | - | 246 W/m² | - |
| 1787782534 | 30° C | 64% | 1015.2 hPa | 0 mm | - | 267 W/m² | - |
| 1787782233 | 30° C | 64% | 1015.1 hPa | 0 mm | - | 286 W/m² | - |
| 1787781924 | 30.56° C | 63% | 1014.8 hPa | 0 mm | - | 302 W/m² | - |
| 1787781624 | 30.56° C | 62% | 1014.9 hPa | 0 mm | - | 321 W/m² | - |
| 1787781316 | 30° C | 61% | 1014.7 hPa | 0 mm | - | 338 W/m² | - |
| 1787781015 | 30° C | 61% | 1014.7 hPa | 0 mm | - | 355 W/m² | - |
| 1787780710 | 30.56° C | 58% | 1014.9 hPa | 0 mm | - | 374 W/m² | - |
| 1787780409 | 30.56° C | 58% | 1014.7 hPa | 0 mm | - | 390 W/m² | - |
| 1787780105 | 31.67° C | 59% | 1014.8 hPa | 0 mm | - | 412 W/m² | - |
| 1787779800 | 31.67° C | 57% | 1014.8 hPa | 0 mm | - | 429 W/m² | - |
| 1787779500 | 31.11° C | 60% | 1014.7 hPa | 0 mm | - | 446 W/m² | - |
| 1787779199 | 30.56° C | 61% | 1014.4 hPa | 0 mm | - | 463 W/m² | - |
| 1787778894 | 30° C | 64% | 1014.5 hPa | 0 mm | - | 484 W/m² | - |
| 1787778590 | 30° C | 63% | 1014.7 hPa | 0 mm | - | 501 W/m² | - |
| 1787778285 | 30.56° C | 58% | 1014.6 hPa | 0 mm | - | 518 W/m² | - |
| 1787777980 | 30.56° C | 68% | 1014.6 hPa | 0 mm | - | 535 W/m² | - |
| 1787777679 | 30.56° C | 62% | 1014.6 hPa | 0 mm | - | 554 W/m² | - |
| 1787777371 | 30.56° C | 60% | 1014.5 hPa | 0 mm | - | 570 W/m² | - |
| 1787777071 | 31.11° C | 61% | 1014.6 hPa | 0 mm | - | 588 W/m² | - |
| 1787776769 | 31.11° C | 58% | 1014.7 hPa | 0 mm | - | 605 W/m² | - |
* Rain latest hour (hover to see other rain measurements)
** Current wind speed in m/s (hover to see current wind gust speed)